Location: Chillicothe
(39.7950°N, 93.5520°W)
Time: 00:41:47
(UTC-06:00)

Vanguard 3 - Pass Details

Date: 26 October 2019
Orbit: 508 x 3263 km, 33.3° (Epoch: 12 November)

Event Time Altitude Azimuth Distance (km) Brightness Sun altitude
Rises 03:09:00 0° 261° (W) 2,602 - -50.3°
Reaches altitude 10° 03:11:34 10° 242° (WSW) 1,727 - -49.8°
Maximum altitude 03:14:14 19° 195° (SSW) 1,358 - -49.4°
Drops below altitude 10° 03:17:19 10° 150° (SSE) 2,020 - -48.9°
Sets 03:20:39 0° 132° (SE) 3,246 - -48.4°
